Time,TemperatureF,DewpointF,PressureIn,WindDirection,WindDirectionDegrees,WindSpeedMPH,WindSpeedGustMPH,Humidity,HourlyPrecipIn,Conditions,Clouds,dailyrainin,SoftwareType,DateUTC
2013-03-15 00:01:00,29.0,20.0,30.17,NNE,33,0.0,1.0,69,0.00,,,0.00,weatherlink.com 1.10,2013-03-15 04:01:00,
2013-03-15 00:16:00,28.8,20.0,30.16,WSW,250,2.0,3.0,70,0.00,,,0.00,weatherlink.com 1.10,2013-03-15 04:16:00,
2013-03-15 00:31:00,29.0,22.0,30.16,West,271,1.0,2.0,74,0.00,,,0.00,weatherlink.com 1.10,2013-03-15 04:31:00,
2013-03-15 00:46:00,28.9,22.0,30.15,West,260,0.0,2.0,76,0.00,,,0.00,weatherlink.com 1.10,2013-03-15 04:46:00,
2013-03-15 01:01:00,28.3,22.0,30.15,WSW,250,0.0,1.0,77,0.00,,,0.00,weatherlink.com 1.10,2013-03-15 05:01:00,
2013-03-15 01:17:00,28.3,23.0,30.14,SW,236,0.0,1.0,79,0.00,,,0.00,weatherlink.com 1.10,2013-03-15 05:17:00,
2013-03-15 01:32:00,27.7,22.0,30.14,SW,236,0.0,1.0,79,0.00,,,0.00,weatherlink.com 1.10,2013-03-15 05:32:00,
2013-03-15 01:47:00,27.7,23.0,30.14,SW,236,0.0,0.0,81,0.00,,,0.00,weatherlink.com 1.10,2013-03-15 05:47:00,
2013-03-15 02:02:00,27.6,23.0,30.14,SW,236,0.0,0.0,81,0.00,,,0.00,weatherlink.com 1.10,2013-03-15 06:02:00,
2013-03-15 02:17:00,27.3,23.0,30.14,SW,236,0.0,0.0,82,0.00,,,0.00,weatherlink.com 1.10,2013-03-15 06:17:00,
2013-03-15 02:32:00,27.0,23.0,30.14,SW,236,0.0,1.0,83,0.00,,,0.00,weatherlink.com 1.10,2013-03-15 06:32:00,
2013-03-15 02:47:00,26.9,22.0,30.14,SW,236,0.0,1.0,82,0.00,,,0.00,weatherlink.com 1.10,2013-03-15 06:47:00,
2013-03-15 03:02:00,26.9,22.0,30.13,SW,236,0.0,1.0,83,0.00,,,0.00,weatherlink.com 1.10,2013-03-15 07:02:00,
2013-03-15 03:17:00,27.0,23.0,30.12,SW,236,0.0,1.0,85,0.00,,,0.00,weatherlink.com 1.10,2013-03-15 07:17:00,
2013-03-15 03:32:00,27.0,23.0,30.12,WSW,248,0.0,1.0,85,0.00,,,0.00,weatherlink.com 1.10,2013-03-15 07:32:00,
2013-03-15 03:47:00,26.9,23.0,30.12,SW,225,1.0,1.0,86,0.00,,,0.00,weatherlink.com 1.10,2013-03-15 07:47:00,
2013-03-15 04:02:00,26.9,23.0,30.11,SSW,212,0.0,0.0,85,0.00,,,0.00,weatherlink.com 1.10,2013-03-15 08:02:00,
2013-03-15 04:17:00,27.1,24.0,30.10,SSW,207,0.0,1.0,86,0.00,,,0.00,weatherlink.com 1.10,2013-03-15 08:17:00,
2013-03-15 04:32:00,27.2,24.0,30.09,East,85,0.0,1.0,86,0.00,,,0.00,weatherlink.com 1.10,2013-03-15 08:32:00,
2013-03-15 04:47:00,27.3,24.0,30.09,East,91,0.0,1.0,86,0.00,,,0.00,weatherlink.com 1.10,2013-03-15 08:47:00,
2013-03-15 05:02:00,27.4,24.0,30.09,East,91,0.0,1.0,86,0.00,,,0.00,weatherlink.com 1.10,2013-03-15 09:02:00,
2013-03-15 05:17:00,27.3,23.0,30.08,East,86,1.0,1.0,85,0.00,,,0.00,weatherlink.com 1.10,2013-03-15 09:17:00,
2013-03-15 05:32:00,27.5,24.0,30.08,East,86,0.0,0.0,85,0.00,,,0.00,weatherlink.com 1.10,2013-03-15 09:32:00,
2013-03-15 05:47:00,28.0,24.0,30.07,East,86,0.0,1.0,85,0.00,,,0.00,weatherlink.com 1.10,2013-03-15 09:47:00,
2013-03-15 06:02:00,28.4,24.0,30.07,NNW,338,0.0,2.0,83,0.00,,,0.00,weatherlink.com 1.10,2013-03-15 10:02:00,
2013-03-15 06:17:00,29.8,23.0,30.07,WNW,297,1.0,3.0,75,0.00,,,0.00,weatherlink.com 1.10,2013-03-15 10:17:00,
2013-03-15 06:32:00,31.0,22.0,30.07,SSW,210,3.0,4.0,70,0.00,,,0.00,weatherlink.com 1.10,2013-03-15 10:32:00,
2013-03-15 06:47:00,31.5,22.0,30.07,WSW,239,2.0,5.0,67,0.00,,,0.00,weatherlink.com 1.10,2013-03-15 10:47:00,
2013-03-15 07:02:00,32.3,23.0,30.07,WSW,246,4.0,5.0,68,0.00,,,0.00,weatherlink.com 1.10,2013-03-15 11:02:00,
2013-03-15 07:17:00,32.3,22.0,30.06,SW,219,3.0,5.0,66,0.00,,,0.00,weatherlink.com 1.10,2013-03-15 11:17:00,
2013-03-15 07:32:00,32.5,21.0,30.05,WSW,245,2.0,6.0,64,0.00,,,0.00,weatherlink.com 1.10,2013-03-15 11:32:00,
2013-03-15 07:47:00,32.8,22.0,30.05,West,274,3.0,9.0,65,0.00,,,0.00,weatherlink.com 1.10,2013-03-15 11:47:00,
2013-03-15 08:02:00,32.8,21.0,30.05,WSW,238,6.0,7.0,63,0.00,,,0.00,weatherlink.com 1.10,2013-03-15 12:02:00,
2013-03-15 08:17:00,33.1,21.0,30.05,West,268,5.0,8.0,62,0.00,,,0.00,weatherlink.com 1.10,2013-03-15 12:17:00,
2013-03-15 08:32:00,33.4,22.0,30.04,West,277,4.0,6.0,62,0.00,,,0.00,weatherlink.com 1.10,2013-03-15 12:32:00,
2013-03-15 08:47:00,33.7,21.0,30.04,WSW,248,3.0,9.0,60,0.00,,,0.00,weatherlink.com 1.10,2013-03-15 12:47:00,
2013-03-15 09:02:00,34.0,22.0,30.04,West,266,3.0,10.0,61,0.00,,,0.00,weatherlink.com 1.10,2013-03-15 13:02:00,
2013-03-15 09:17:00,34.3,21.0,30.03,West,271,7.0,8.0,59,0.00,,,0.00,weatherlink.com 1.10,2013-03-15 13:17:00,
2013-03-15 09:32:00,34.6,21.0,30.03,WNW,284,5.0,10.0,59,0.00,,,0.00,weatherlink.com 1.10,2013-03-15 13:32:00,
2013-03-15 09:48:00,35.0,22.0,30.02,WNW,284,4.0,9.0,60,0.00,,,0.00,weatherlink.com 1.10,2013-03-15 13:48:00,
2013-03-15 10:03:00,35.7,23.0,30.02,WNW,286,5.0,8.0,60,0.00,,,0.00,weatherlink.com 1.10,2013-03-15 14:03:00,
2013-03-15 10:18:00,36.3,24.0,30.01,WSW,249,4.0,8.0,61,0.00,,,0.00,weatherlink.com 1.10,2013-03-15 14:18:00,
2013-03-15 10:33:00,36.8,26.0,30.00,West,281,6.0,11.0,64,0.00,,,0.00,weatherlink.com 1.10,2013-03-15 14:33:00,
2013-03-15 10:48:00,37.2,25.0,30.00,WNW,286,7.0,17.0,62,0.00,,,0.00,weatherlink.com 1.10,2013-03-15 14:48:00,
2013-03-15 11:03:00,37.6,25.0,30.00,WSW,252,2.0,12.0,61,0.00,,,0.00,weatherlink.com 1.10,2013-03-15 15:03:00,
2013-03-15 11:18:00,38.3,26.0,29.99,WSW,240,4.0,13.0,62,0.00,,,0.00,weatherlink.com 1.10,2013-03-15 15:18:00,
2013-03-15 11:33:00,39.1,27.0,29.98,West,264,4.0,14.0,62,0.00,,,0.00,weatherlink.com 1.10,2013-03-15 15:33:00,
2013-03-15 11:48:00,39.6,27.0,29.97,SSW,210,6.0,10.0,62,0.00,,,0.00,weatherlink.com 1.10,2013-03-15 15:48:00,
2013-03-15 12:03:00,39.9,28.0,29.97,SW,225,7.0,11.0,63,0.00,,,0.00,weatherlink.com 1.10,2013-03-15 16:03:00,
2013-03-15 12:18:00,40.1,29.0,29.97,WSW,255,6.0,15.0,65,0.00,,,0.00,weatherlink.com 1.10,2013-03-15 16:18:00,
2013-03-15 12:33:00,40.0,29.0,29.96,West,270,4.0,19.0,66,0.00,,,0.00,weatherlink.com 1.10,2013-03-15 16:33:00,
2013-03-15 12:48:00,40.5,29.0,29.95,West,271,8.0,19.0,64,0.00,,,0.00,weatherlink.com 1.10,2013-03-15 16:48:00,
2013-03-15 13:03:00,41.1,28.0,29.94,West,272,10.0,16.0,61,0.00,,,0.00,weatherlink.com 1.10,2013-03-15 17:03:00,
2013-03-15 13:18:00,41.9,29.0,29.93,West,264,6.0,19.0,60,0.00,,,0.00,weatherlink.com 1.10,2013-03-15 17:18:00,
2013-03-15 13:33:00,42.6,29.0,29.92,WSW,248,7.0,17.0,58,0.00,,,0.00,weatherlink.com 1.10,2013-03-15 17:33:00,
2013-03-15 13:48:00,43.7,29.0,29.91,WNW,284,8.0,25.0,56,0.00,,,0.00,weatherlink.com 1.10,2013-03-15 17:48:00,
2013-03-15 14:03:00,44.0,29.0,29.90,WNW,282,17.0,19.0,55,0.00,,,0.00,weatherlink.com 1.10,2013-03-15 18:03:00,
2013-03-15 14:18:00,44.8,29.0,29.89,West,274,20.0,22.0,55,0.00,,,0.00,weatherlink.com 1.10,2013-03-15 18:18:00,
2013-03-15 14:34:00,45.1,29.0,29.88,WSW,239,11.0,19.0,54,0.00,,,0.00,weatherlink.com 1.10,2013-03-15 18:34:00,
2013-03-15 14:49:00,45.6,30.0,29.88,WSW,252,10.0,14.0,55,0.00,,,0.00,weatherlink.com 1.10,2013-03-15 18:49:00,
2013-03-15 15:04:00,45.7,30.0,29.88,WNW,284,9.0,19.0,54,0.00,,,0.00,weatherlink.com 1.10,2013-03-15 19:04:00,
2013-03-15 15:19:00,46.3,30.0,29.87,West,266,10.0,16.0,53,0.00,,,0.00,weatherlink.com 1.10,2013-03-15 19:19:00,
2013-03-15 15:34:00,46.9,31.0,29.86,West,271,8.0,11.0,54,0.00,,,0.00,weatherlink.com 1.10,2013-03-15 19:34:00,
2013-03-15 15:49:00,47.3,30.0,29.86,West,278,12.0,14.0,52,0.00,,,0.00,weatherlink.com 1.10,2013-03-15 19:49:00,
2013-03-15 16:04:00,47.8,31.0,29.86,West,270,16.0,18.0,52,0.00,,,0.00,weatherlink.com 1.10,2013-03-15 20:04:00,
2013-03-15 16:19:00,47.7,31.0,29.85,West,276,9.0,14.0,53,0.00,,,0.00,weatherlink.com 1.10,2013-03-15 20:19:00,
2013-03-15 16:34:00,47.5,32.0,29.85,NW,313,5.0,13.0,55,0.00,,,0.00,weatherlink.com 1.10,2013-03-15 20:34:00,
2013-03-15 16:49:00,47.7,32.0,29.85,WNW,284,8.0,11.0,55,0.00,,,0.00,weatherlink.com 1.10,2013-03-15 20:49:00,
2013-03-15 17:04:00,47.9,32.0,29.84,WSW,240,12.0,15.0,54,0.00,,,0.00,weatherlink.com 1.10,2013-03-15 21:04:00,
2013-03-15 17:19:00,48.7,32.0,29.84,West,272,4.0,10.0,53,0.00,,,0.00,weatherlink.com 1.10,2013-03-15 21:19:00,
2013-03-15 17:34:00,48.5,32.0,29.83,West,278,4.0,13.0,54,0.00,,,0.00,weatherlink.com 1.10,2013-03-15 21:34:00,
2013-03-15 17:49:00,48.6,32.0,29.84,WNW,284,8.0,13.0,53,0.00,,,0.00,weatherlink.com 1.10,2013-03-15 21:49:00,
2013-03-15 18:04:00,48.4,33.0,29.84,West,280,5.0,11.0,56,0.00,,,0.00,weatherlink.com 1.10,2013-03-15 22:04:00,
2013-03-15 18:19:00,48.1,33.0,29.84,WNW,292,4.0,11.0,56,0.00,,,0.00,weatherlink.com 1.10,2013-03-15 22:19:00,
2013-03-15 18:34:00,48.1,33.0,29.84,WNW,284,4.0,9.0,56,0.00,,,0.00,weatherlink.com 1.10,2013-03-15 22:34:00,
2013-03-15 18:49:00,47.8,33.0,29.84,WNW,284,3.0,7.0,58,0.00,,,0.00,weatherlink.com 1.10,2013-03-15 22:49:00,
2013-03-15 19:04:00,47.7,33.0,29.84,West,281,5.0,8.0,58,0.00,,,0.00,weatherlink.com 1.10,2013-03-15 23:04:00,
2013-03-15 19:19:00,47.7,33.0,29.85,WNW,283,4.0,8.0,58,0.00,,,0.00,weatherlink.com 1.10,2013-03-15 23:19:00,
2013-03-15 19:34:00,46.8,34.0,29.85,WNW,286,2.0,4.0,61,0.00,,,0.00,weatherlink.com 1.10,2013-03-15 23:34:00,
2013-03-15 19:49:00,46.7,34.0,29.85,West,269,1.0,3.0,61,0.00,,,0.00,weatherlink.com 1.10,2013-03-15 23:49:00,
2013-03-15 20:04:00,46.5,34.0,29.86,West,266,1.0,5.0,61,0.00,,,0.00,weatherlink.com 1.10,2013-03-16 00:04:00,
2013-03-15 20:19:00,46.3,34.0,29.86,West,276,2.0,2.0,62,0.00,,,0.00,weatherlink.com 1.10,2013-03-16 00:19:00,
2013-03-15 20:34:00,46.5,33.0,29.87,WNW,302,2.0,3.0,60,0.00,,,0.00,weatherlink.com 1.10,2013-03-16 00:34:00,
2013-03-15 20:49:00,46.4,33.0,29.87,West,281,2.0,5.0,60,0.00,,,0.00,weatherlink.com 1.10,2013-03-16 00:49:00,
2013-03-15 21:04:00,46.1,33.0,29.87,WNW,287,4.0,6.0,61,0.00,,,0.00,weatherlink.com 1.10,2013-03-16 01:04:00,
2013-03-15 21:19:00,45.7,33.0,29.87,WNW,284,2.0,4.0,62,0.00,,,0.00,weatherlink.com 1.10,2013-03-16 01:19:00,
2013-03-15 21:34:00,45.3,34.0,29.88,WNW,301,4.0,8.0,64,0.00,,,0.00,weatherlink.com 1.10,2013-03-16 01:34:00,
2013-03-15 21:49:00,44.7,34.0,29.88,WNW,288,2.0,7.0,66,0.00,,,0.00,weatherlink.com 1.10,2013-03-16 01:49:00,
2013-03-15 22:04:00,44.4,34.0,29.88,NNW,343,1.0,3.0,67,0.00,,,0.00,weatherlink.com 1.10,2013-03-16 02:04:00,
2013-03-15 22:19:00,44.0,34.0,29.89,WNW,288,3.0,5.0,69,0.00,,,0.00,weatherlink.com 1.10,2013-03-16 02:19:00,
2013-03-15 22:34:00,43.3,35.0,29.88,West,265,1.0,3.0,72,0.00,,,0.00,weatherlink.com 1.10,2013-03-16 02:34:00,
2013-03-15 22:49:00,42.8,35.0,29.88,WSW,258,0.0,1.0,75,0.00,,,0.00,weatherlink.com 1.10,2013-03-16 02:49:00,
2013-03-15 23:04:00,42.4,36.0,29.88,NW,320,1.0,3.0,77,0.00,,,0.00,weatherlink.com 1.10,2013-03-16 03:04:00,
2013-03-15 23:19:00,41.2,36.0,29.89,NNW,338,1.0,4.0,81,0.00,,,0.00,weatherlink.com 1.10,2013-03-16 03:19:00,
2013-03-15 23:34:00,40.3,36.0,29.89,North,6,0.0,5.0,84,0.00,,,0.00,weatherlink.com 1.10,2013-03-16 03:34:00,
2013-03-15 23:49:00,40.0,36.0,29.88,ESE,115,1.0,2.0,85,0.00,,,0.00,weatherlink.com 1.10,2013-03-16 03:49:00,